www.pogodaiklimat.ru

Погода и климат >> Архив погоды >> Россия >> Сахалинская область >> Северо-Курильск


АРХИВ ПОГОДЫ в Северо-Курильске

Время (UTC), дата Ветер
(напр.,м/с)
 
Видим.   Явления Облачность Т
(С)
Тd
(С)
f
(%)
Тe
(С)
Тes
(С)
Комфортность P
(гПа)
Po
(гПа)
Тmin
(С)
Tmax
(С)
R
(мм)
R24
(мм)
S
(см)
06 19.08 ЮВ 1-2
{6}
40 км 10/3 1000 м
[Sc Ac As]
+12.2 +8.8 80 +12 +13 по сезону 1020.8 1017.9
09 19.08 ЮВ 1-2
{3}
27 км 9/0
[Ac As Cc]
+11.6 +8.5 81 +11 +11 по сезону 1020.3 1017.3 +15.0
12 19.08 СЗ 4-6
{9}
4000 м 8/0
[Ac As]
+14.2 +7.2 63 +13 +13 тепло 1020.7 1017.8
15 19.08 З 1-1
{7}
4000 м 10/0
[Ac As]
+11.4 +10.8 96 +11 +11 по сезону 1020.5 1017.5
18 19.08 ЮЗ 1-1
{3}
4000 м слаб. ливневой дождь 10/10 600 м
[Cb cap]
+11.6 +11.3 98 +11 +11 по сезону 1020.7 1017.8
21 19.08 СВ 2-3
{4}
2800 м ливневой дождь 10/10 300 м
[Cb cap]
+11.6 +11.1 97 +10 +10 по сезону 1020.9 1018.0 +10.8 1
00 20.08 СВ 4-6
{8}
26 км {ливн. осадки} 10/10 300 м
[Cb cap]
+12.7 +9.1 79 +11 +11 по сезону 1021.1 1018.2
03 20.08 ЮЗ 2-3
{7}
30 км 9/9 600 м
[Sc]
+13.5 +8.7 73 +13 +14 по сезону 1019.7 1016.8
06 20.08 В 2-3
{4}
29 км 9/9 600 м
[Sc]
+12.8 +9.0 78 +12 +12 по сезону 1018.3 1015.4
09 20.08 ЮВ 1-1
{4}
24 км 10/10 300 м
[St]
+11.0 +9.4 90 +11 +11 по сезону 1018.5 1015.6 +14.0 0.7
12 20.08 штиль 0
{2}
4000 м дымка 10/10 300 м
[St]
+10.6 +10.4 99 +10 +10 по сезону 1017.8 1014.9
15 20.08 ЮВ 1-1
{2}
4000 м дымка 10/10 300 м
[St]
+10.6 +10.5 99 +10 +10 по сезону 1016.9 1014.0
18 20.08 штиль 0-1
{3}
2000 м слаб. морось 10/10 200 м
[St]
+10.1 +10.1 100 +9 +9 по сезону 1016.1 1013.2
21 20.08 С 4-8
{8}
8000 м туман на расстоянии 10/8 200 м
[St Ac As]
+12.1 +11.5 96 +10 +10 по сезону 1015.6 1012.7 +9.5 0.4
00 21.08 С 4-5
{9}
3700 м туман на расстоянии 10/10 100 м
[St]
+14.0 +12.6 91 +12 +12 по сезону 1015.7 1012.8
03 21.08 С 3-5
{6}
24 км 10/9 200 м
[St Ac trans]
+13.5 +10.8 84 +12 +13 по сезону 1015.2 1012.3
06 21.08 С 3-4
{7}
23 км 9/8 100 м
[St Ac trans Ci fib]
+12.8 +10.7 87 +11 +12 по сезону 1015.6 1012.7
09 21.08 С 1-2
{5}
500 м туман ?/? +10.5 +10.5 100 +10 +10 по сезону 1016.4 1013.5 +14.4
12 21.08 ЮЗ 1-3
{3}
500 м слаб. морось {туман} туман ?/? +9.3 +9.3 100 +8 +8 по сезону 1017.7 1014.8
15 21.08 Ю 1-2
{4}
500 м туман ?/? +10.0 +9.8 99 +9 +9 по сезону 1018.2 1015.3
18 21.08 ЮВ 1-1
{3}
4000 м слаб. ливневой дождь {морось} 10/10 100 м
[Cb cap]
+9.3 +9.3 100 +8 +8 по сезону 1019.1 1016.1
21 21.08 -02
{04}
в посл. час ливневой дождь н/о 1019.8 1017.0 +9.2 0.6
00 22.08 В 3-4
{5}
8000 м слаб. ливневой дождь 9/9 200 м
[Cb cap]
+11.1 +10.6 97 +9 +10 прохладно 1020.2 1017.2
03 22.08 В 4-5
{7}
27 км {ливн. осадки} 9/9 200 м
[Cb cap]
+11.3 +8.6 83 +9 +10 прохладно 1020.2 1017.3
06 22.08 В 3-4
{6}
25 км {ливн. осадки} 10/10 200 м
[St]
+10.9 +7.5 80 +9 +9 прохладно 1020.4 1017.5
09 22.08 ЮЗ 1-2
{4}
23 км 10/9 100 м
[St As trans]
+10.0 +8.2 89 +9 +9 по сезону 1021.2 1018.2 +12.8 0.0
12 22.08 ЮЗ 1-3
{3}
4000 м 3/3 600 м
[Sc]
+7.9 +5.6 85 +7 +7 по сезону 1021.3 1018.3
15 22.08 З 2-2
{4}
4000 м 8/0
[Ci fib]
+7.6 +5.5 87 +5 +5 прохладно 1021.7 1018.7
18 22.08 З 1-2
{3}
4000 м 10/8 600 м
[Sc Ac As]
+9.1 +6.5 84 +8 +8 по сезону 1021.9 1019.0
21 22.08 ЮВ 1-2
{3}
26 км 10/10 300 м
[St]
+9.7 +6.1 78 +9 +9 по сезону 1022.2 1019.3 +7.3
00 23.08 С 1-2
{3}
35 км 10/10 600 м
[Sc]
+10.7 +6.9 77 +10 +10 по сезону 1022.9 1019.9
03 23.08 СВ 1-2
{3}
40 км 10/10 600 м
[Sc]
+11.2 +7.3 77 +11 +11 по сезону 1022.6 1019.6
06 23.08 штиль 0
{2}
30 км 10/10 600 м
[Sc]
+11.2 +7.6 78 +11 +11 по сезону 1022.3 1019.4
09 23.08 С 1-2
{4}
23 км 10/10 600 м
[Cb cap]
+9.8 +8.1 89 +9 +9 по сезону 1023.2 1020.3 +11.4
12 23.08 штиль 0
{2}
4000 м 10/10 300 м
[St]
+9.5 +9.0 97 +9 +9 по сезону 1023.7 1020.7
15 23.08 С 1-1
{1}
2000 м слаб. морось 10/10 300 м
[St]
+9.0 +9.0 100 +8 +8 по сезону 1023.6 1020.6
18 23.08 С 1-2
{2}
2000 м слаб. морось 10/10 300 м
[St]
+8.6 +8.6 100 +8 +8 по сезону 1023.6 1020.6
21 23.08 штиль 0
{2}
27 км в посл. час морось 10/10 600 м
[Sc]
+9.0 +9.0 100 +8 +8 прохладно 1024.2 1021.2 +8.6 0.6
00 24.08 ЮВ 6-9
{9}
29 км {морось} 9/9 600 м
[Sc]
+11.3 +6.2 71 +8 +9 прохладно 1023.7 1020.7
03 24.08 В 6-9
{11}
30 км 9/8 600 м
[Sc Cs]
+11.9 +7.3 73 +9 +10 прохладно 1022.4 1019.5
06 24.08 ЮВ 5-7
{10}
15 км слаб. ливневой дождь 10/10 200 м
[Cb cap]
+10.2 +6.8 79 +7 +7 холодно 1022.1 1019.2
09 24.08 ЮВ 4-7
{8}
22 км {ливн. осадки} 10/10 600 м
[Sc]
+10.3 +6.8 79 +8 +8 прохладно 1021.9 1019.0 +12.8 0.0
12 24.08 ЮВ 6-8
{9}
4000 м {ливн. осадки} 10/10 600 м
[Sc]
+10.6 +7.4 81 +7 +7 по сезону 1021.1 1018.1
15 24.08 ЮВ 5-7
{9}
4000 м 10/10 600 м
[Sc]
+10.6 +7.8 83 +8 +8 по сезону 1019.2 1016.3
18 24.08 В 5-8
{10}
4000 м слаб. ливневой дождь 10/10 600 м
[Cb cap]
+10.0 +9.4 96 +7 +7 по сезону 1017.1 1014.1
21 24.08 В 6-10
{10}
4200 м слаб. ливневой дождь 10/10 300 м
[Cb cap]
+10.2 +9.9 98 +7 +7 прохладно 1016.5 1013.6 +10.0 3
00 25.08 В 6-11
{12}
1900 м ливневой дождь 10/10 600 м
[Cb cap]
+10.8 +10.7 99 +7 +7 холодно 1013.9 1011.0
03 25.08 В 5-9
{13}
1900 м слаб. ливневой дождь 10/10 600 м
[Cb cap]
+10.9 +10.8 99 +8 +8 прохладно 1011.2 1008.3
06 25.08 В 4-8
{12}
1600 м ливневой дождь 10/10 600 м
[Cb cap]
+11.3 +11.1 99 +9 +9 прохладно 1008.4 1005.5
09 25.08 СВ 7-12
{12}
1000 м ливневой дождь 10/10 300 м
[Cb cap]
+11.4 +10.4 94 +8 +8 прохладно 1005.6 1002.7 +11.4 25
12 25.08 СВ 4-8
{12}
2000 м гроза, ливневой дождь 10/10 300 м
[Cb cap]
+11.3 +10.6 95 +9 +9 по сезону 1003.7 1000.8
15 25.08 ЮВ 3-5
{8}
2000 м ливневой дождь {гроза} 10/10 600 м
[Cb cap]
+10.8 +10.2 96 +9 +9 по сезону 1001.8 998.9
18 25.08 ЮВ 4-4
{7}
4000 м слаб. ливневой дождь {гроза} 10/10 600 м
[Cb cap]
+10.4 +9.9 97 +8 +8 по сезону 1001.7 998.8
21 25.08 ЮВ 3-4
{6}
500 м слаб. ливневой дождь {туман} туман ?/? +10.7 +10.2 97 +9 +9 по сезону 1002.5 999.6 +10.1 20
00 26.08 В 4-5
{6}
1600 м слаб. морось 10/10 100 м
[St]
+11.7 +11.0 95 +9 +9 прохладно 1002.6 999.8
03 26.08 В 1-2
{5}
1700 м слаб. морось 10/10 100 м
[St]
+11.7 +10.8 94 +11 +11 по сезону 1002.6 999.7

 

Местоположение метеостанции Северо-Курильск (Сахалинская область, Россия): широта 50.68 долгота 156.10 высота над уровнем моря 23 м.

В архиве по умолчанию представлена погода в Северо-Курильске за последнюю неделю. Архивные данные за месяц целиком и за предыдущие месяцы, начиная с января 2011 года, Вы можете получить, выбрав интересующий диапазон дат из раскрывающегося списка и нажав кнопку "Ввод!".


*Определитесь, кто Вы:
робот инопланетянин человек

Внимание! Время в таблицах - всемирное. Для получения местного времени необходимо прибавить поправку, которая равна 12 ч.

Смотрите также архив погоды в соседних городах и на ближайших метеорологических станциях:

Погода на Мысе Лопатка (Камчатский край, Россия) (41 км)
Погода в Озерной (Камчатский край, Россия) (91 км)
Погода в Водопадной (Камчатский край, Россия) (183 км)
Погода в Большерецке (Камчатский край, Россия) (240 км)
Погода в Начиках (Камчатский край, Россия) (293 км)
Погода в Петропавловск-Камчатском (Камчатский край, Россия) (298 км)
Погода в Петропавловском Маяке (Камчатский край, Россия) (303 км)
Погода в Сосновке (Камчатский край, Россия) (307 км)
Погода в Петропавловск-Камч. 2 (Камчатский край, Россия) (314 км)
Погода в Соболево (Камчатский край, Россия) (403 км)

Пояснения к столбцам:

Ветер - указаны скорость ветра в м/с - средняя за 10 мин, порывы в срок и между сроками (в фигурных скобках) и направление, откуда дует ветер: С - северный, СВ - северо-восточный, В - восточный, ЮВ - юго-восточный, Ю - южный, ЮЗ - юго-западный, З - западный, СЗ - северо-западный.
Видимость - горизонтальная дальность видимости в метрах или километрах. При видимости от 1 до 10 км при отсутствии осадков обычно наблюдается дымка, при ухудшении видимости до 1 км и менее - туман. В сухую погоду видимость может ухудшаться дымом, пылью или мглою.
Явления - указаны атмосферные явления, наблюдавшиеся в срок или в последний час перед сроком; фигурными скобками обозначены явления, наблюдавшиеся между сроками (за 1-3 часа до срока); квадратными скобками обозначены град или гололедные отложения с указанием их диаметра в мм.
Облачность - указаны через наклонную черту общая и нижняя облачность в баллах и высота нижней границы облаков в метрах; квадратными скобками обозначены формы облаков: Ci - перистые, Cs - перисто-слоистые, Cc - перисто-кучевые, Ac - высококучевые, As - высокослоистые, Sc - слоисто-кучевые, Ns - слоисто-дождевые, Cu - кучевые, Cb - кучево-дождевые. Подробнее классификацию облаков см. в Атласе облаков (PDF).
T - Температура воздуха - температура, измеренная на высоте 2 м над землей.
Td - Температура точки росы - температура, при понижении до которой содержащийся в воздухе водяной пар достигнет насыщения.
f - Относительная влажность воздуха - влажноcть воздуха, измеренная на высоте 2 м над землей.
Te - Эффективная температура - температура, которую ощущает одетый по сезону человек в тени. Характеристика душности погоды. При расчете учитывается влияние влажности воздуха и скорости ветра на теплоощущения человека.
Tes - Эффективная температура на солнце - температура, которую ощущает человек, с поправкой на солнечный нагрев. Характеристика знойности погоды. Зависит от высоты солнца над горизонтом, облачности и скорости ветра. Ночью, в пасмурную погоду, а также при ветре 12 м/с и более поправка равна нулю.
P - Атмосферное давление - приведенное к уровню моря атмосферное давление.
Po - Атмосферное давление - измеренное на уровне метеостанции атмосферное давление.
Tmin - Минимальная температура - минимум температуры воздуха на высоте 2 м над землей.
Tmax - Максимальная температура - максимум температуры воздуха на высоте 2 м над землей.
R - Количество осадков - Количество выпавших осадков за период времени, мм. При наведении курсора мыши на число - период времени, за который выпало указанное количество осадков.
R24 - Количество осадков - Количество выпавших осадков за 24 часа, мм.
S - Снежный покров - Высота снежного покрова, см. При наведении курсора мыши на число - состояние снежного покрова и степень покрытия местности в баллах.